Simultaneous Nadir Overpasses (SNOs) Predictions

Prediction of SNOs between GOES-17 and METOP-A Satellite Orbit:

Table of predicted SNOs for the next 14.0 days since TLE Epoch: 2/22/2020
Index Date Time (GOES-17) GOES-17 Lat,Lon METOP-A Lat,Lon Distance(km) Time Diff (sec)
1 02/22/2020 17:48:27 -0.01,-137.22 -0.62,-134.58 301.20 80
2 02/24/2020 06:04:47 0.01,-137.20 -0.43,-139.20 227.50 80
3 02/25/2020 05:46:48 0.00,-137.20 0.66,-134.22 339.55 80
4 02/26/2020 18:03:00 -0.00,-137.20 0.35,-138.81 183.50 80
5 02/27/2020 17:45:01 -0.00,-137.19 -0.74,-133.83 383.19 80
6 02/29/2020 06:01:21 0.00,-137.17 -0.30,-138.45 146.62 80
7 03/01/2020 05:43:22 0.00,-137.16 0.79,-133.47 419.58 80
8 03/02/2020 17:59:35 -0.01,-137.15 0.16,-138.08 105.08 80
9 03/03/2020 17:41:35 -0.01,-137.13 -0.93,-133.09 460.56 80
10 03/05/2020 05:57:56 0.01,-137.09 -0.11,-137.72 70.94 80
11 03/06/2020 05:39:56 0.01,-137.07 0.98,-132.73 494.22 80




NCC Satellite Simultaneous Nadir Overpasses (SNOs) Prediction Service
